Time,TemperatureF,DewpointF,PressureIn,WindDirection,WindDirectionDegrees,WindSpeedMPH,WindSpeedGustMPH,Humidity,HourlyPrecipIn,Conditions,Clouds,dailyrainin,SoftwareType,DateUTC
2013-09-10 00:01:00,72.5,68.7,29.94,East,90,0.0,0.0,88,0.00,,,0.00,WeatherCatV1.21B27,2013-09-10 04:01:00,
2013-09-10 00:02:00,72.5,68.7,29.94,East,90,0.0,0.0,88,0.00,,,0.00,WeatherCatV1.21B27,2013-09-10 04:02:00,
2013-09-10 00:03:00,72.5,68.7,29.94,East,91,0.0,0.0,88,0.00,,,0.00,WeatherCatV1.21B27,2013-09-10 04:03:00,
2013-09-10 00:06:00,72.6,68.8,29.94,East,91,0.0,0.0,88,0.00,,,0.00,WeatherCatV1.21B27,2013-09-10 04:06:00,
2013-09-10 00:09:00,72.5,68.7,29.94,SE,137,0.0,0.0,88,0.00,,,0.00,WeatherCatV1.21B27,2013-09-10 04:09:00,
2013-09-10 00:13:00,72.8,69.0,29.94,South,191,0.0,0.0,88,0.00,,,0.00,WeatherCatV1.21B27,2013-09-10 04:13:00,
2013-09-10 00:18:00,72.8,68.7,29.93,East,90,0.0,0.0,87,0.00,,,0.00,WeatherCatV1.21B27,2013-09-10 04:18:00,
2013-09-10 00:23:00,72.8,68.7,29.93,SSW,200,0.0,0.0,87,0.00,,,0.00,WeatherCatV1.21B27,2013-09-10 04:23:00,
2013-09-10 00:28:00,72.8,68.7,29.92,ESE,121,0.0,0.0,87,0.00,,,0.00,WeatherCatV1.21B27,2013-09-10 04:28:00,
2013-09-10 00:33:00,72.7,68.6,29.92,SSE,159,0.0,0.0,87,0.00,,,0.00,WeatherCatV1.21B27,2013-09-10 04:33:00,
2013-09-10 00:38:00,72.7,68.6,29.92,SE,144,0.0,0.0,87,0.00,,,0.00,WeatherCatV1.21B27,2013-09-10 04:38:00,
2013-09-10 00:44:00,72.8,68.7,29.91,SE,132,0.0,0.0,87,0.00,,,0.00,WeatherCatV1.21B27,2013-09-10 04:44:00,
2013-09-10 00:49:00,72.9,68.8,29.92,ESE,108,0.0,0.0,87,0.00,,,0.00,WeatherCatV1.21B27,2013-09-10 04:49:00,
2013-09-10 00:54:00,73.2,69.1,29.92,South,169,0.0,0.0,87,0.00,,,0.00,WeatherCatV1.21B27,2013-09-10 04:54:00,
2013-09-10 00:59:00,73.4,69.3,29.92,SSE,166,0.0,0.0,87,0.00,,,0.00,WeatherCatV1.21B27,2013-09-10 04:59:00,
2013-09-10 01:04:00,73.4,68.9,29.91,SSW,194,0.0,0.0,86,0.00,,,0.00,WeatherCatV1.21B27,2013-09-10 05:04:00,
2013-09-10 01:09:00,73.4,68.9,29.91,South,182,0.0,0.0,86,0.00,,,0.00,WeatherCatV1.21B27,2013-09-10 05:09:00,
2013-09-10 01:14:00,73.4,68.9,29.91,SE,140,0.0,0.0,86,0.00,,,0.00,WeatherCatV1.21B27,2013-09-10 05:14:00,
2013-09-10 01:19:00,73.2,68.8,29.91,SE,140,0.0,0.0,86,0.00,,,0.00,WeatherCatV1.21B27,2013-09-10 05:19:00,
2013-09-10 01:24:00,73.2,68.8,29.91,SE,140,0.0,0.0,86,0.00,,,0.00,WeatherCatV1.21B27,2013-09-10 05:24:00,
2013-09-10 01:29:00,73.2,68.8,29.92,ESE,108,0.0,0.0,86,0.00,,,0.00,WeatherCatV1.21B27,2013-09-10 05:29:00,
2013-09-10 01:35:00,73.1,68.7,29.92,SE,139,0.0,0.0,86,0.00,,,0.00,WeatherCatV1.21B27,2013-09-10 05:35:00,
2013-09-10 01:40:00,73.0,68.6,29.92,SSE,157,0.0,0.0,86,0.00,,,0.00,WeatherCatV1.21B27,2013-09-10 05:40:00,
2013-09-10 01:45:00,73.0,68.6,29.91,SSE,151,0.0,0.0,86,0.00,,,0.00,WeatherCatV1.21B27,2013-09-10 05:45:00,
2013-09-10 01:50:00,72.9,68.5,29.92,South,178,0.0,0.0,86,0.00,,,0.00,WeatherCatV1.21B27,2013-09-10 05:50:00,
2013-09-10 01:55:00,72.9,68.5,29.92,SSE,167,0.0,0.0,86,0.00,,,0.00,WeatherCatV1.21B27,2013-09-10 05:55:00,
2013-09-10 02:00:00,72.7,68.3,29.92,SE,128,0.0,0.0,86,0.00,,,0.00,WeatherCatV1.21B27,2013-09-10 06:00:00,
2013-09-10 02:05:00,72.5,68.1,29.92,SE,128,0.0,0.0,86,0.00,,,0.00,WeatherCatV1.21B27,2013-09-10 06:05:00,
2013-09-10 02:10:00,72.5,68.4,29.91,ESE,122,0.0,0.0,87,0.00,,,0.00,WeatherCatV1.21B27,2013-09-10 06:10:00,
2013-09-10 02:15:00,72.4,68.3,29.92,ESE,122,0.0,0.0,87,0.00,,,0.00,WeatherCatV1.21B27,2013-09-10 06:15:00,
2013-09-10 02:20:00,72.3,68.2,29.92,ESE,122,0.0,0.0,87,0.00,,,0.00,WeatherCatV1.21B27,2013-09-10 06:20:00,
2013-09-10 02:25:00,72.2,68.1,29.92,ESE,122,0.0,0.0,87,0.00,,,0.00,WeatherCatV1.21B27,2013-09-10 06:25:00,
2013-09-10 02:30:00,72.2,68.1,29.92,ESE,122,0.0,0.0,87,0.00,,,0.00,WeatherCatV1.21B27,2013-09-10 06:30:00,
2013-09-10 02:35:00,72.2,68.1,29.92,ESE,122,0.0,0.0,87,0.00,,,0.00,WeatherCatV1.21B27,2013-09-10 06:35:00,
2013-09-10 02:40:00,72.1,68.0,29.92,ESE,122,0.0,0.0,87,0.00,,,0.00,WeatherCatV1.21B27,2013-09-10 06:40:00,
2013-09-10 02:45:00,72.1,68.0,29.92,ESE,122,0.0,0.0,87,0.00,,,0.00,WeatherCatV1.21B27,2013-09-10 06:45:00,
2013-09-10 02:50:00,72.1,68.3,29.92,ESE,122,0.0,0.0,88,0.00,,,0.00,WeatherCatV1.21B27,2013-09-10 06:50:00,
2013-09-10 02:55:00,72.1,68.3,29.92,NE,49,0.0,0.0,88,0.00,,,0.00,WeatherCatV1.21B27,2013-09-10 06:55:00,
2013-09-10 03:00:00,72.1,68.3,29.92,East,101,0.0,0.0,88,0.00,,,0.00,WeatherCatV1.21B27,2013-09-10 07:00:00,
2013-09-10 03:05:00,72.1,68.0,29.92,East,101,0.0,0.0,87,0.00,,,0.00,WeatherCatV1.21B27,2013-09-10 07:05:00,
2013-09-10 03:10:00,72.0,68.2,29.92,East,101,0.0,0.0,88,0.00,,,0.00,WeatherCatV1.21B27,2013-09-10 07:10:00,
2013-09-10 03:16:00,72.1,68.3,29.93,NE,48,0.0,0.0,88,0.00,,,0.00,WeatherCatV1.21B27,2013-09-10 07:16:00,
2013-09-10 03:21:00,72.1,68.3,29.93,East,88,0.0,0.0,88,0.00,,,0.00,WeatherCatV1.21B27,2013-09-10 07:21:00,
2013-09-10 03:26:00,72.3,68.5,29.93,East,88,0.0,0.0,88,0.00,,,0.00,WeatherCatV1.21B27,2013-09-10 07:26:00,
2013-09-10 03:31:00,72.4,68.6,29.93,East,88,0.0,0.0,88,0.00,,,0.00,WeatherCatV1.21B27,2013-09-10 07:31:00,
2013-09-10 03:36:00,72.6,68.5,29.93,East,88,0.0,0.0,87,0.00,,,0.00,WeatherCatV1.21B27,2013-09-10 07:36:00,
2013-09-10 03:41:00,72.6,68.5,29.93,East,88,0.0,0.0,87,0.00,,,0.00,WeatherCatV1.21B27,2013-09-10 07:41:00,
2013-09-10 03:46:00,72.7,68.6,29.93,ESE,105,0.0,0.0,87,0.00,,,0.00,WeatherCatV1.21B27,2013-09-10 07:46:00,
2013-09-10 03:51:00,72.8,68.7,29.93,ESE,105,0.0,0.0,87,0.00,,,0.00,WeatherCatV1.21B27,2013-09-10 07:51:00,
2013-09-10 03:56:00,72.7,68.6,29.93,ESE,105,0.0,0.0,87,0.00,,,0.00,WeatherCatV1.21B27,2013-09-10 07:56:00,
2013-09-10 04:01:00,72.8,68.7,29.93,ESE,105,0.0,0.0,87,0.00,,,0.00,WeatherCatV1.21B27,2013-09-10 08:01:00,
2013-09-10 04:06:00,72.8,68.7,29.93,ESE,105,0.0,0.0,87,0.00,,,0.00,WeatherCatV1.21B27,2013-09-10 08:06:00,
2013-09-10 04:11:00,72.7,68.3,29.93,ESE,105,0.0,0.0,86,0.00,,,0.00,WeatherCatV1.21B27,2013-09-10 08:11:00,
2013-09-10 04:16:00,72.7,68.6,29.93,ESE,113,0.0,0.0,87,0.00,,,0.00,WeatherCatV1.21B27,2013-09-10 08:16:00,
2013-09-10 04:21:00,72.7,68.6,29.93,ESE,113,0.0,0.0,87,0.00,,,0.00,WeatherCatV1.21B27,2013-09-10 08:21:00,
2013-09-10 04:26:00,72.6,68.5,29.93,NNE,26,0.0,0.0,87,0.00,,,0.00,WeatherCatV1.21B27,2013-09-10 08:26:00,
2013-09-10 04:31:00,72.7,68.6,29.93,NNE,26,0.0,0.0,87,0.00,,,0.00,WeatherCatV1.21B27,2013-09-10 08:31:00,
2013-09-10 04:36:00,72.7,68.6,29.93,ENE,77,0.0,0.0,87,0.00,,,0.00,WeatherCatV1.21B27,2013-09-10 08:36:00,
2013-09-10 04:41:00,72.8,68.4,29.94,ENE,77,0.0,0.0,86,0.00,,,0.00,WeatherCatV1.21B27,2013-09-10 08:41:00,
2013-09-10 04:46:00,72.8,68.7,29.94,ENE,77,0.0,0.0,87,0.00,,,0.00,WeatherCatV1.21B27,2013-09-10 08:46:00,
2013-09-10 04:51:00,72.9,68.8,29.93,ENE,76,0.0,0.0,87,0.00,,,0.00,WeatherCatV1.21B27,2013-09-10 08:51:00,
2013-09-10 04:56:00,72.9,68.5,29.94,ENE,76,0.0,0.0,86,0.00,,,0.00,WeatherCatV1.21B27,2013-09-10 08:56:00,
2013-09-10 05:01:00,72.9,68.5,29.93,ENE,76,0.0,0.0,86,0.00,,,0.00,WeatherCatV1.21B27,2013-09-10 09:01:00,
2013-09-10 05:06:00,72.8,68.4,29.93,ENE,77,0.0,0.0,86,0.00,,,0.00,WeatherCatV1.21B27,2013-09-10 09:06:00,
2013-09-10 05:11:00,72.8,68.7,29.93,ENE,77,0.0,0.0,87,0.00,,,0.00,WeatherCatV1.21B27,2013-09-10 09:11:00,
2013-09-10 05:16:00,72.7,68.6,29.93,ENE,76,0.0,0.0,87,0.00,,,0.00,WeatherCatV1.21B27,2013-09-10 09:16:00,
2013-09-10 05:21:00,72.7,68.6,29.93,ENE,77,0.0,0.0,87,0.00,,,0.00,WeatherCatV1.21B27,2013-09-10 09:21:00,
2013-09-10 05:26:00,72.9,68.8,29.93,ENE,76,0.0,0.0,87,0.00,,,0.00,WeatherCatV1.21B27,2013-09-10 09:26:00,
2013-09-10 05:31:00,73.0,68.9,29.93,ENE,76,0.0,0.0,87,0.00,,,0.00,WeatherCatV1.21B27,2013-09-10 09:31:00,
2013-09-10 05:36:00,73.0,68.9,29.93,East,94,0.0,0.0,87,0.00,,,0.00,WeatherCatV1.21B27,2013-09-10 09:36:00,
2013-09-10 05:41:00,73.0,68.6,29.93,East,94,0.0,0.0,86,0.00,,,0.00,WeatherCatV1.21B27,2013-09-10 09:41:00,
2013-09-10 05:46:00,73.1,68.7,29.93,East,94,0.0,0.0,86,0.00,,,0.00,WeatherCatV1.21B27,2013-09-10 09:46:00,
2013-09-10 05:51:00,73.0,68.6,29.93,East,94,0.0,0.0,86,0.00,,,0.00,WeatherCatV1.21B27,2013-09-10 09:51:00,
2013-09-10 05:56:00,73.0,68.6,29.93,East,94,0.0,0.0,86,0.00,,,0.00,WeatherCatV1.21B27,2013-09-10 09:56:00,
2013-09-10 06:01:00,73.1,68.7,29.94,West,266,0.0,0.0,86,0.00,,,0.00,WeatherCatV1.21B27,2013-09-10 10:01:00,
2013-09-10 06:06:00,73.1,68.7,29.94,West,265,0.0,0.0,86,0.00,,,0.00,WeatherCatV1.21B27,2013-09-10 10:06:00,
2013-09-10 06:11:00,73.0,68.6,29.94,ESE,112,0.0,0.0,86,0.00,,,0.00,WeatherCatV1.21B27,2013-09-10 10:11:00,
2013-09-10 06:16:00,72.9,68.5,29.95,East,100,0.0,0.0,86,0.00,,,0.00,WeatherCatV1.21B27,2013-09-10 10:16:00,
2013-09-10 06:21:00,73.0,68.6,29.95,East,100,0.0,0.0,86,0.00,,,0.00,WeatherCatV1.21B27,2013-09-10 10:21:00,
2013-09-10 06:26:00,73.0,68.6,29.95,East,100,0.0,0.0,86,0.00,,,0.00,WeatherCatV1.21B27,2013-09-10 10:26:00,
2013-09-10 06:31:00,73.0,68.6,29.95,East,99,0.0,0.0,86,0.00,,,0.00,WeatherCatV1.21B27,2013-09-10 10:31:00,
2013-09-10 06:36:00,73.0,68.6,29.95,East,100,0.0,0.0,86,0.00,,,0.00,WeatherCatV1.21B27,2013-09-10 10:36:00,
2013-09-10 06:41:00,73.0,68.6,29.94,East,100,0.0,0.0,86,0.00,,,0.00,WeatherCatV1.21B27,2013-09-10 10:41:00,
2013-09-10 06:46:00,73.1,68.7,29.95,ESE,117,0.0,0.0,86,0.00,,,0.00,WeatherCatV1.21B27,2013-09-10 10:46:00,
2013-09-10 06:51:00,73.1,68.7,29.95,ESE,117,0.0,0.0,86,0.00,,,0.00,WeatherCatV1.21B27,2013-09-10 10:51:00,
2013-09-10 06:56:00,73.1,68.7,29.96,ESE,117,0.0,0.0,86,0.00,,,0.00,WeatherCatV1.21B27,2013-09-10 10:56:00,
2013-09-10 07:01:00,73.0,68.6,29.96,ESE,117,0.0,0.0,86,0.00,,,0.00,WeatherCatV1.21B27,2013-09-10 11:01:00,
2013-09-10 07:06:00,73.0,68.6,29.95,ESE,117,0.0,0.0,86,0.00,,,0.00,WeatherCatV1.21B27,2013-09-10 11:06:00,
2013-09-10 07:11:00,72.9,68.5,29.95,ESE,119,0.0,0.0,86,0.00,,,0.00,WeatherCatV1.21B27,2013-09-10 11:11:00,
2013-09-10 07:16:00,72.9,68.8,29.95,ESE,121,0.0,0.0,87,0.00,,,0.00,WeatherCatV1.21B27,2013-09-10 11:16:00,
2013-09-10 07:21:00,72.9,68.8,29.96,ESE,121,0.0,0.0,87,0.00,,,0.00,WeatherCatV1.21B27,2013-09-10 11:21:00,
2013-09-10 07:26:00,72.9,68.8,29.96,ESE,121,0.0,0.0,87,0.00,,,0.00,WeatherCatV1.21B27,2013-09-10 11:26:00,
2013-09-10 07:31:00,73.0,68.9,29.96,ESE,121,0.0,0.0,87,0.00,,,0.00,WeatherCatV1.21B27,2013-09-10 11:31:00,
2013-09-10 07:37:00,73.0,68.9,29.96,ESE,121,0.0,0.0,87,0.00,,,0.00,WeatherCatV1.21B27,2013-09-10 11:37:00,
2013-09-10 07:42:00,73.0,68.9,29.96,ESE,121,0.0,0.0,87,0.00,,,0.00,WeatherCatV1.21B27,2013-09-10 11:42:00,
2013-09-10 07:47:00,73.0,68.9,29.96,ESE,121,0.0,0.0,87,0.00,,,0.00,WeatherCatV1.21B27,2013-09-10 11:47:00,
2013-09-10 07:52:00,73.1,69.0,29.97,ESE,121,0.0,0.0,87,0.00,,,0.00,WeatherCatV1.21B27,2013-09-10 11:52:00,
2013-09-10 07:57:00,73.1,69.0,29.96,ESE,121,0.0,0.0,87,0.00,,,0.00,WeatherCatV1.21B27,2013-09-10 11:57:00,
2013-09-10 08:02:00,73.1,69.0,29.96,ESE,121,0.0,0.0,87,0.00,,,0.00,WeatherCatV1.21B27,2013-09-10 12:02:00,
2013-09-10 08:07:00,73.1,69.0,29.96,ESE,121,0.0,0.0,87,0.00,,,0.00,WeatherCatV1.21B27,2013-09-10 12:07:00,
2013-09-10 08:12:00,73.2,69.1,29.96,ESE,121,0.0,0.0,87,0.00,,,0.00,WeatherCatV1.21B27,2013-09-10 12:12:00,
2013-09-10 08:17:00,73.3,69.2,29.96,ESE,121,0.0,0.0,87,0.00,,,0.00,WeatherCatV1.21B27,2013-09-10 12:17:00,
2013-09-10 08:22:00,73.5,69.4,29.96,ESE,121,0.0,0.0,87,0.00,,,0.00,WeatherCatV1.21B27,2013-09-10 12:22:00,
2013-09-10 08:28:00,73.8,69.7,29.96,ESE,121,0.0,0.0,87,0.00,,,0.00,WeatherCatV1.21B27,2013-09-10 12:28:00,
2013-09-10 08:33:00,74.0,69.9,29.96,ESE,121,0.0,0.0,87,0.00,,,0.00,WeatherCatV1.21B27,2013-09-10 12:33:00,
2013-09-10 08:38:00,74.1,70.0,29.96,ESE,121,0.0,0.0,87,0.00,,,0.00,WeatherCatV1.21B27,2013-09-10 12:38:00,
2013-09-10 08:43:00,74.4,70.3,29.96,ESE,119,0.0,0.0,87,0.00,,,0.00,WeatherCatV1.21B27,2013-09-10 12:43:00,
2013-09-10 08:48:00,74.7,70.6,29.96,SE,129,0.0,0.0,87,0.00,,,0.00,WeatherCatV1.21B27,2013-09-10 12:48:00,
2013-09-10 08:54:00,75.0,70.5,29.96,West,261,0.0,0.0,86,0.00,,,0.00,WeatherCatV1.21B27,2013-09-10 12:54:00,
2013-09-10 08:59:00,75.6,71.1,29.96,West,261,0.0,0.0,86,0.00,,,0.00,WeatherCatV1.21B27,2013-09-10 12:59:00,
2013-09-10 09:04:00,76.0,71.2,29.96,South,185,0.0,0.0,85,0.00,,,0.00,WeatherCatV1.21B27,2013-09-10 13:04:00,
2013-09-10 09:09:00,76.4,71.5,29.96,South,184,0.0,0.0,85,0.00,,,0.00,WeatherCatV1.21B27,2013-09-10 13:09:00,
2013-09-10 09:14:00,76.7,71.8,29.96,South,185,0.0,0.0,85,0.00,,,0.00,WeatherCatV1.21B27,2013-09-10 13:14:00,
2013-09-10 09:19:00,77.1,71.9,29.96,South,185,0.0,0.0,84,0.00,,,0.00,WeatherCatV1.21B27,2013-09-10 13:19:00,
2013-09-10 09:24:00,77.6,72.4,29.96,South,185,0.0,0.0,84,0.00,,,0.00,WeatherCatV1.21B27,2013-09-10 13:24:00,
2013-09-10 09:29:00,78.0,72.8,29.97,South,184,0.0,0.0,84,0.00,,,0.00,WeatherCatV1.21B27,2013-09-10 13:29:00,
2013-09-10 09:34:00,78.5,72.5,29.97,South,185,0.0,0.0,82,0.00,,,0.00,WeatherCatV1.21B27,2013-09-10 13:34:00,
2013-09-10 09:39:00,78.9,72.9,29.97,South,185,0.0,0.0,82,0.00,,,0.00,WeatherCatV1.21B27,2013-09-10 13:39:00,
2013-09-10 09:44:00,79.5,73.1,29.97,South,184,0.0,0.0,81,0.00,,,0.00,WeatherCatV1.21B27,2013-09-10 13:44:00,
2013-09-10 09:49:00,80.0,73.3,29.97,SW,225,0.0,0.0,80,0.00,,,0.00,WeatherCatV1.21B27,2013-09-10 13:49:00,
2013-09-10 09:54:00,80.8,74.4,29.97,SW,223,0.0,0.0,81,0.00,,,0.00,WeatherCatV1.21B27,2013-09-10 13:54:00,
2013-09-10 09:59:00,81.2,74.1,29.97,SW,223,0.0,0.0,79,0.00,,,0.00,WeatherCatV1.21B27,2013-09-10 13:59:00,
2013-09-10 10:04:00,82.1,75.3,29.97,SW,223,0.0,0.0,80,0.00,,,0.00,WeatherCatV1.21B27,2013-09-10 14:04:00,
2013-09-10 10:09:00,82.6,74.2,29.97,SW,223,0.0,0.0,76,0.00,,,0.00,WeatherCatV1.21B27,2013-09-10 14:09:00,
2013-09-10 10:14:00,82.7,74.3,29.97,SW,222,0.0,0.0,76,0.00,,,0.00,WeatherCatV1.21B27,2013-09-10 14:14:00,
2013-09-10 10:19:00,83.3,74.9,29.98,SW,226,0.0,0.0,76,0.00,,,0.00,WeatherCatV1.21B27,2013-09-10 14:19:00,
2013-09-10 10:24:00,83.9,75.5,29.98,SW,223,0.0,0.0,76,0.00,,,0.00,WeatherCatV1.21B27,2013-09-10 14:24:00,
2013-09-10 10:29:00,84.3,74.3,29.98,SW,218,0.0,0.0,72,0.00,,,0.00,WeatherCatV1.21B27,2013-09-10 14:29:00,
2013-09-10 10:34:00,84.3,74.7,29.98,SSW,202,0.0,0.0,73,0.00,,,0.00,WeatherCatV1.21B27,2013-09-10 14:34:00,
2013-09-10 10:39:00,84.6,74.6,29.97,WSW,256,0.0,0.0,72,0.00,,,0.00,WeatherCatV1.21B27,2013-09-10 14:39:00,
2013-09-10 10:44:00,85.0,74.1,29.98,South,190,0.0,0.0,70,0.00,,,0.00,WeatherCatV1.21B27,2013-09-10 14:44:00,
2013-09-10 10:49:00,85.2,74.3,29.97,South,190,0.0,0.0,70,0.00,,,0.00,WeatherCatV1.21B27,2013-09-10 14:49:00,
2013-09-10 10:54:00,85.5,74.1,29.97,SSW,204,3.0,5.0,69,0.00,,,0.00,WeatherCatV1.21B27,2013-09-10 14:54:00,
2013-09-10 10:59:00,85.7,73.9,29.97,South,187,0.0,7.0,68,0.00,,,0.00,WeatherCatV1.21B27,2013-09-10 14:59:00,
2013-09-10 11:04:00,85.6,74.2,29.97,SSW,207,0.0,5.0,69,0.00,,,0.00,WeatherCatV1.21B27,2013-09-10 15:04:00,
2013-09-10 11:09:00,86.2,74.4,29.97,South,184,0.0,3.0,68,0.00,,,0.00,WeatherCatV1.21B27,2013-09-10 15:09:00,
2013-09-10 11:14:00,86.6,74.8,29.97,SW,234,0.0,0.0,68,0.00,,,0.00,WeatherCatV1.21B27,2013-09-10 15:14:00,
2013-09-10 11:19:00,86.6,75.2,29.97,SW,217,0.0,0.0,69,0.00,,,0.00,WeatherCatV1.21B27,2013-09-10 15:19:00,
2013-09-10 11:24:00,86.8,74.5,29.97,South,187,0.0,0.0,67,0.00,,,0.00,WeatherCatV1.21B27,2013-09-10 15:24:00,
2013-09-10 11:29:00,86.9,73.7,29.97,South,183,5.0,6.0,65,0.00,,,0.00,WeatherCatV1.21B27,2013-09-10 15:29:00,
2013-09-10 11:34:00,87.1,75.2,29.97,WSW,249,0.0,0.0,68,0.00,,,0.00,WeatherCatV1.21B27,2013-09-10 15:34:00,
2013-09-10 11:39:00,87.4,74.2,29.97,SW,236,2.0,6.0,65,0.00,,,0.00,WeatherCatV1.21B27,2013-09-10 15:39:00,
2013-09-10 11:44:00,87.6,74.3,29.97,WNW,284,0.0,4.0,65,0.00,,,0.00,WeatherCatV1.21B27,2013-09-10 15:44:00,
2013-09-10 11:49:00,87.8,74.5,29.97,SSW,213,0.0,4.0,65,0.00,,,0.00,WeatherCatV1.21B27,2013-09-10 15:49:00,
2013-09-10 11:54:00,88.2,76.3,29.97,SSW,193,0.0,0.0,68,0.00,,,0.00,WeatherCatV1.21B27,2013-09-10 15:54:00,
2013-09-10 11:59:00,88.0,73.8,29.97,SW,214,3.0,6.0,63,0.00,,,0.00,WeatherCatV1.21B27,2013-09-10 15:59:00,
2013-09-10 12:04:00,87.9,75.1,29.97,WSW,241,0.0,7.0,66,0.00,,,0.00,WeatherCatV1.21B27,2013-09-10 16:04:00,
2013-09-10 12:09:00,88.2,74.4,29.97,WSW,257,3.0,5.0,64,0.00,,,0.00,WeatherCatV1.21B27,2013-09-10 16:09:00,
2013-09-10 12:14:00,88.7,74.4,29.97,SW,225,3.0,4.0,63,0.00,,,0.00,WeatherCatV1.21B27,2013-09-10 16:14:00,
2013-09-10 12:19:00,88.7,74.0,29.97,South,188,2.0,4.0,62,0.00,,,0.00,WeatherCatV1.21B27,2013-09-10 16:19:00,
2013-09-10 12:24:00,89.2,75.9,29.97,West,277,3.0,3.0,65,0.00,,,0.00,WeatherCatV1.21B27,2013-09-10 16:24:00,
2013-09-10 12:29:00,89.4,73.7,29.97,SW,232,1.0,5.0,60,0.00,,,0.00,WeatherCatV1.21B27,2013-09-10 16:29:00,
2013-09-10 12:34:00,89.4,73.7,29.97,WSW,238,0.0,4.0,60,0.00,,,0.00,WeatherCatV1.21B27,2013-09-10 16:34:00,
2013-09-10 12:39:00,89.4,74.1,29.97,WSW,241,3.0,3.0,61,0.00,,,0.00,WeatherCatV1.21B27,2013-09-10 16:39:00,
2013-09-10 12:44:00,89.5,73.2,29.97,SSW,192,0.0,4.0,59,0.00,,,0.00,WeatherCatV1.21B27,2013-09-10 16:44:00,
2013-09-10 12:49:00,90.0,73.7,29.97,South,187,0.0,5.0,59,0.00,,,0.00,WeatherCatV1.21B27,2013-09-10 16:49:00,
2013-09-10 12:54:00,90.0,73.7,29.97,WNW,284,2.0,5.0,59,0.00,,,0.00,WeatherCatV1.21B27,2013-09-10 16:54:00,
2013-09-10 12:59:00,90.4,74.1,29.97,SW,222,2.0,4.0,59,0.00,,,0.00,WeatherCatV1.21B27,2013-09-10 16:59:00,
2013-09-10 13:04:00,90.4,74.6,29.97,West,262,0.0,3.0,60,0.00,,,0.00,WeatherCatV1.21B27,2013-09-10 17:04:00,
2013-09-10 13:09:00,90.7,73.8,29.96,SW,223,4.0,4.0,58,0.00,,,0.00,WeatherCatV1.21B27,2013-09-10 17:09:00,
2013-09-10 13:14:00,90.7,75.4,29.97,South,188,0.0,6.0,61,0.00,,,0.00,WeatherCatV1.21B27,2013-09-10 17:14:00,
2013-09-10 13:19:00,91.0,73.6,29.97,South,187,0.0,0.0,57,0.00,,,0.00,WeatherCatV1.21B27,2013-09-10 17:19:00,
2013-09-10 13:24:00,91.0,73.1,29.97,South,179,5.0,5.0,56,0.00,,,0.00,WeatherCatV1.21B27,2013-09-10 17:24:00,
2013-09-10 13:29:00,91.0,73.1,29.97,SW,219,2.0,5.0,56,0.00,,,0.00,WeatherCatV1.21B27,2013-09-10 17:29:00,
2013-09-10 13:34:00,91.3,73.9,29.97,SW,234,0.0,5.0,57,0.00,,,0.00,WeatherCatV1.21B27,2013-09-10 17:34:00,
2013-09-10 13:39:00,91.3,74.4,29.97,SW,228,0.0,0.0,58,0.00,,,0.00,WeatherCatV1.21B27,2013-09-10 17:39:00,
2013-09-10 13:44:00,91.6,74.2,29.97,SW,222,4.0,9.0,57,0.00,,,0.00,WeatherCatV1.21B27,2013-09-10 17:44:00,
2013-09-10 13:49:00,91.5,74.6,29.97,SSW,199,2.0,4.0,58,0.00,,,0.00,WeatherCatV1.21B27,2013-09-10 17:49:00,
2013-09-10 13:54:00,91.9,75.0,29.97,WSW,246,3.0,3.0,58,0.00,,,0.00,WeatherCatV1.21B27,2013-09-10 17:54:00,
2013-09-10 13:59:00,92.1,74.6,29.97,WNW,289,2.0,5.0,57,0.00,,,0.00,WeatherCatV1.21B27,2013-09-10 17:59:00,
2013-09-10 14:04:00,91.9,73.4,29.97,WSW,243,2.0,4.0,55,0.00,,,0.00,WeatherCatV1.21B27,2013-09-10 18:04:00,
2013-09-10 14:09:00,92.5,76.6,29.96,WSW,242,0.0,0.0,60,0.00,,,0.00,WeatherCatV1.21B27,2013-09-10 18:09:00,
2013-09-10 14:14:00,92.2,73.1,29.97,West,263,2.0,5.0,54,0.00,,,0.00,WeatherCatV1.21B27,2013-09-10 18:14:00,
2013-09-10 14:19:00,91.1,73.7,29.97,West,264,2.0,3.0,57,0.00,,,0.00,WeatherCatV1.21B27,2013-09-10 18:19:00,
2013-09-10 14:24:00,91.0,75.1,29.97,West,264,0.0,2.0,60,0.00,,,0.00,WeatherCatV1.21B27,2013-09-10 18:24:00,
2013-09-10 14:30:00,91.1,74.7,29.96,WSW,252,0.0,4.0,59,0.00,,,0.00,WeatherCatV1.21B27,2013-09-10 18:30:00,
2013-09-10 14:35:00,91.2,74.3,29.97,SW,236,3.0,4.0,58,0.00,,,0.00,WeatherCatV1.21B27,2013-09-10 18:35:00,
2013-09-10 14:40:00,91.0,74.1,29.97,SW,225,2.0,5.0,58,0.00,,,0.00,WeatherCatV1.21B27,2013-09-10 18:40:00,
2013-09-10 14:45:00,90.9,73.5,29.97,WSW,248,0.0,4.0,57,0.00,,,0.00,WeatherCatV1.21B27,2013-09-10 18:45:00,
2013-09-10 14:50:00,91.5,75.1,29.96,WNW,294,2.0,2.0,59,0.00,,,0.00,WeatherCatV1.21B27,2013-09-10 18:50:00,
2013-09-10 14:55:00,91.6,74.2,29.96,WNW,284,2.0,3.0,57,0.00,,,0.00,WeatherCatV1.21B27,2013-09-10 18:55:00,
2013-09-10 15:00:00,91.1,73.7,29.96,West,275,1.0,3.0,57,0.00,,,0.00,WeatherCatV1.21B27,2013-09-10 19:00:00,
2013-09-10 15:05:00,91.0,73.1,29.96,WNW,286,1.0,3.0,56,0.00,,,0.00,WeatherCatV1.21B27,2013-09-10 19:05:00,
2013-09-10 15:10:00,90.8,73.4,29.96,West,265,3.0,3.0,57,0.00,,,0.00,WeatherCatV1.21B27,2013-09-10 19:10:00,
2013-09-10 15:15:00,90.9,73.0,29.96,SW,233,2.0,3.0,56,0.00,,,0.00,WeatherCatV1.21B27,2013-09-10 19:15:00,
2013-09-10 15:20:00,91.1,74.2,29.96,SW,230,2.0,3.0,58,0.00,,,0.00,WeatherCatV1.21B27,2013-09-10 19:20:00,
2013-09-10 15:25:00,91.3,73.4,29.95,WNW,287,0.0,1.0,56,0.00,,,0.00,WeatherCatV1.21B27,2013-09-10 19:25:00,
2013-09-10 15:30:00,91.2,73.3,29.95,WNW,286,3.0,6.0,56,0.00,,,0.00,WeatherCatV1.21B27,2013-09-10 19:30:00,
2013-09-10 15:35:00,91.2,72.2,29.95,WSW,256,3.0,9.0,54,0.00,,,0.00,WeatherCatV1.21B27,2013-09-10 19:35:00,
2013-09-10 15:40:00,91.2,72.2,29.95,WSW,240,1.0,5.0,54,0.00,,,0.00,WeatherCatV1.21B27,2013-09-10 19:40:00,
2013-09-10 15:45:00,91.4,72.4,29.96,SW,219,3.0,4.0,54,0.00,,,0.00,WeatherCatV1.21B27,2013-09-10 19:45:00,
2013-09-10 15:50:00,91.4,72.4,29.95,WNW,291,2.0,3.0,54,0.00,,,0.00,WeatherCatV1.21B27,2013-09-10 19:50:00,
2013-09-10 15:55:00,91.3,71.7,29.95,West,261,3.0,5.0,53,0.00,,,0.00,WeatherCatV1.21B27,2013-09-10 19:55:00,
2013-09-10 16:00:00,91.5,71.9,29.95,WNW,283,0.0,4.0,53,0.00,,,0.00,WeatherCatV1.21B27,2013-09-10 20:00:00,
2013-09-10 16:05:00,91.7,71.5,29.95,SW,225,1.0,3.0,52,0.00,,,0.00,WeatherCatV1.21B27,2013-09-10 20:05:00,
2013-09-10 16:10:00,91.7,72.1,29.95,West,267,0.0,0.0,53,0.00,,,0.00,WeatherCatV1.21B27,2013-09-10 20:10:00,
2013-09-10 16:15:00,91.7,71.0,29.95,SW,221,2.0,5.0,51,0.00,,,0.00,WeatherCatV1.21B27,2013-09-10 20:15:00,
2013-09-10 16:20:00,91.7,70.4,29.95,West,265,2.0,5.0,50,0.00,,,0.00,WeatherCatV1.21B27,2013-09-10 20:20:00,
2013-09-10 16:25:00,91.6,70.9,29.95,SW,234,2.0,4.0,51,0.00,,,0.00,WeatherCatV1.21B27,2013-09-10 20:25:00,
2013-09-10 16:30:00,91.3,71.2,29.95,WSW,257,3.0,5.0,52,0.00,,,0.00,WeatherCatV1.21B27,2013-09-10 20:30:00,
2013-09-10 16:35:00,91.0,70.9,29.95,SW,221,4.0,5.0,52,0.00,,,0.00,WeatherCatV1.21B27,2013-09-10 20:35:00,
2013-09-10 16:40:00,91.1,72.1,29.95,West,276,2.0,4.0,54,0.00,,,0.00,WeatherCatV1.21B27,2013-09-10 20:40:00,
2013-09-10 16:45:00,90.9,71.9,29.95,WNW,288,2.0,3.0,54,0.00,,,0.00,WeatherCatV1.21B27,2013-09-10 20:45:00,
2013-09-10 16:50:00,90.6,72.7,29.95,West,272,2.0,3.0,56,0.00,,,0.00,WeatherCatV1.21B27,2013-09-10 20:50:00,
2013-09-10 16:55:00,90.3,71.9,29.95,SW,223,7.0,8.0,55,0.00,,,0.00,WeatherCatV1.21B27,2013-09-10 20:55:00,
2013-09-10 17:00:00,89.8,72.0,29.95,WSW,257,3.0,6.0,56,0.00,,,0.00,WeatherCatV1.21B27,2013-09-10 21:00:00,
2013-09-10 17:05:00,89.4,71.6,29.95,SW,235,3.0,10.0,56,0.00,,,0.00,WeatherCatV1.21B27,2013-09-10 21:05:00,
2013-09-10 17:10:00,89.2,71.9,29.95,SSW,196,6.0,6.0,57,0.00,,,0.00,WeatherCatV1.21B27,2013-09-10 21:10:00,
2013-09-10 17:15:00,88.8,72.6,29.95,West,269,2.0,3.0,59,0.00,,,0.00,WeatherCatV1.21B27,2013-09-10 21:15:00,
2013-09-10 17:20:00,88.3,72.1,29.95,SW,236,3.0,4.0,59,0.00,,,0.00,WeatherCatV1.21B27,2013-09-10 21:20:00,
2013-09-10 17:25:00,88.1,71.9,29.96,SW,223,3.0,6.0,59,0.00,,,0.00,WeatherCatV1.21B27,2013-09-10 21:25:00,
2013-09-10 17:30:00,88.2,71.0,29.96,West,267,0.0,4.0,57,0.00,,,0.00,WeatherCatV1.21B27,2013-09-10 21:30:00,
2013-09-10 17:35:00,88.5,71.3,29.95,SW,227,4.0,4.0,57,0.00,,,0.00,WeatherCatV1.21B27,2013-09-10 21:35:00,
2013-09-10 17:40:00,88.4,70.7,29.96,WSW,257,5.0,5.0,56,0.00,,,0.00,WeatherCatV1.21B27,2013-09-10 21:40:00,
2013-09-10 17:45:00,88.4,71.2,29.96,WSW,242,2.0,3.0,57,0.00,,,0.00,WeatherCatV1.21B27,2013-09-10 21:45:00,
2013-09-10 17:50:00,88.6,70.3,29.95,West,275,3.0,3.0,55,0.00,,,0.00,WeatherCatV1.21B27,2013-09-10 21:50:00,
2013-09-10 17:55:00,88.9,70.6,29.96,WSW,253,3.0,3.0,55,0.00,,,0.00,WeatherCatV1.21B27,2013-09-10 21:55:00,
2013-09-10 18:00:00,89.2,70.3,29.95,West,275,3.0,3.0,54,0.00,,,0.00,WeatherCatV1.21B27,2013-09-10 22:00:00,
2013-09-10 18:05:00,89.5,70.1,29.95,SW,232,3.0,3.0,53,0.00,,,0.00,WeatherCatV1.21B27,2013-09-10 22:05:00,
2013-09-10 18:10:00,89.3,69.3,29.95,SW,223,2.0,5.0,52,0.00,,,0.00,WeatherCatV1.21B27,2013-09-10 22:10:00,
2013-09-10 18:15:00,88.9,69.5,29.95,West,264,2.0,3.0,53,0.00,,,0.00,WeatherCatV1.21B27,2013-09-10 22:15:00,
2013-09-10 18:20:00,88.6,69.8,29.95,WSW,246,0.0,0.0,54,0.00,,,0.00,WeatherCatV1.21B27,2013-09-10 22:20:00,
2013-09-10 18:25:00,88.5,70.2,29.96,SSW,194,0.0,2.0,55,0.00,,,0.00,WeatherCatV1.21B27,2013-09-10 22:25:00,
2013-09-10 18:30:00,88.3,71.1,29.96,SSW,213,0.0,0.0,57,0.00,,,0.00,WeatherCatV1.21B27,2013-09-10 22:30:00,
2013-09-10 18:35:00,88.0,70.8,29.96,West,261,0.0,2.0,57,0.00,,,0.00,WeatherCatV1.21B27,2013-09-10 22:35:00,
2013-09-10 18:40:00,87.9,71.2,29.96,West,261,0.0,0.0,58,0.00,,,0.00,WeatherCatV1.21B27,2013-09-10 22:40:00,
2013-09-10 18:45:00,87.3,71.2,29.96,West,261,0.0,0.0,59,0.00,,,0.00,WeatherCatV1.21B27,2013-09-10 22:45:00,
2013-09-10 18:50:00,86.9,70.8,29.96,West,261,0.0,0.0,59,0.00,,,0.00,WeatherCatV1.21B27,2013-09-10 22:50:00,
2013-09-10 18:55:00,86.4,71.3,29.96,West,260,0.0,0.0,61,0.00,,,0.00,WeatherCatV1.21B27,2013-09-10 22:55:00,
2013-09-10 19:00:00,86.0,71.9,29.96,West,261,0.0,0.0,63,0.00,,,0.00,WeatherCatV1.21B27,2013-09-10 23:00:00,
2013-09-10 19:05:00,85.4,71.8,29.96,West,261,0.0,0.0,64,0.00,,,0.00,WeatherCatV1.21B27,2013-09-10 23:05:00,
2013-09-10 19:10:00,85.0,71.9,29.96,West,260,0.0,0.0,65,0.00,,,0.00,WeatherCatV1.21B27,2013-09-10 23:10:00,
2013-09-10 19:15:00,84.7,72.1,29.96,West,260,0.0,0.0,66,0.00,,,0.00,WeatherCatV1.21B27,2013-09-10 23:15:00,
2013-09-10 19:20:00,84.4,72.2,29.97,West,261,0.0,0.0,67,0.00,,,0.00,WeatherCatV1.21B27,2013-09-10 23:20:00,
2013-09-10 19:25:00,84.1,71.9,29.97,West,261,0.0,0.0,67,0.00,,,0.00,WeatherCatV1.21B27,2013-09-10 23:25:00,
2013-09-10 19:30:00,83.7,71.6,29.97,West,261,0.0,0.0,67,0.00,,,0.00,WeatherCatV1.21B27,2013-09-10 23:30:00,
2013-09-10 19:35:00,83.3,71.6,29.97,West,260,0.0,0.0,68,0.00,,,0.00,WeatherCatV1.21B27,2013-09-10 23:35:00,
2013-09-10 19:40:00,83.0,72.2,29.97,West,261,0.0,0.0,70,0.00,,,0.00,WeatherCatV1.21B27,2013-09-10 23:40:00,
2013-09-10 19:45:00,82.4,72.0,29.97,West,261,0.0,0.0,71,0.00,,,0.00,WeatherCatV1.21B27,2013-09-10 23:45:00,
2013-09-10 19:50:00,82.1,71.7,29.98,West,260,0.0,0.0,71,0.00,,,0.00,WeatherCatV1.21B27,2013-09-10 23:50:00,
2013-09-10 19:55:00,81.7,71.8,29.98,West,261,0.0,0.0,72,0.00,,,0.00,WeatherCatV1.21B27,2013-09-10 23:55:00,
2013-09-10 20:00:00,81.3,72.2,29.98,West,261,0.0,0.0,74,0.00,,,0.00,WeatherCatV1.21B27,2013-09-11 00:00:00,
2013-09-10 20:05:00,80.9,71.8,29.98,West,260,0.0,0.0,74,0.00,,,0.00,WeatherCatV1.21B27,2013-09-11 00:05:00,
2013-09-10 20:10:00,80.6,71.9,29.98,West,260,0.0,0.0,75,0.00,,,0.00,WeatherCatV1.21B27,2013-09-11 00:10:00,
2013-09-10 20:15:00,80.2,71.5,29.98,West,261,0.0,0.0,75,0.00,,,0.00,WeatherCatV1.21B27,2013-09-11 00:15:00,
2013-09-10 20:20:00,79.9,71.2,29.99,West,261,0.0,0.0,75,0.00,,,0.00,WeatherCatV1.21B27,2013-09-11 00:20:00,
2013-09-10 20:25:00,79.7,71.1,29.99,West,260,0.0,0.0,75,0.00,,,0.00,WeatherCatV1.21B27,2013-09-11 00:25:00,
2013-09-10 20:30:00,79.5,71.2,29.99,West,260,0.0,0.0,76,0.00,,,0.00,WeatherCatV1.21B27,2013-09-11 00:30:00,
2013-09-10 20:35:00,79.4,71.5,29.99,West,261,0.0,0.0,77,0.00,,,0.00,WeatherCatV1.21B27,2013-09-11 00:35:00,
2013-09-10 20:40:00,79.2,71.7,29.99,West,260,0.0,0.0,78,0.00,,,0.00,WeatherCatV1.21B27,2013-09-11 00:40:00,
2013-09-10 20:45:00,79.0,71.5,29.99,West,260,0.0,0.0,78,0.00,,,0.00,WeatherCatV1.21B27,2013-09-11 00:45:00,
2013-09-10 20:50:00,78.8,71.7,29.99,West,260,0.0,0.0,79,0.00,,,0.00,WeatherCatV1.21B27,2013-09-11 00:50:00,
2013-09-10 20:55:00,78.5,71.4,29.99,West,261,0.0,0.0,79,0.00,,,0.00,WeatherCatV1.21B27,2013-09-11 00:55:00,
2013-09-10 21:00:00,78.2,71.5,29.99,West,261,0.0,0.0,80,0.00,,,0.00,WeatherCatV1.21B27,2013-09-11 01:00:00,
2013-09-10 21:05:00,78.0,71.7,29.99,West,261,0.0,0.0,81,0.00,,,0.00,WeatherCatV1.21B27,2013-09-11 01:05:00,
2013-09-10 21:10:00,77.7,71.4,30.00,West,261,0.0,0.0,81,0.00,,,0.00,WeatherCatV1.21B27,2013-09-11 01:10:00,
2013-09-10 21:15:00,77.6,71.3,30.00,West,261,0.0,0.0,81,0.00,,,0.00,WeatherCatV1.21B27,2013-09-11 01:15:00,
2013-09-10 21:20:00,77.6,71.3,30.00,West,261,0.0,0.0,81,0.00,,,0.00,WeatherCatV1.21B27,2013-09-11 01:20:00,
2013-09-10 21:25:00,77.6,71.7,30.00,West,261,0.0,0.0,82,0.00,,,0.00,WeatherCatV1.21B27,2013-09-11 01:25:00,
2013-09-10 21:30:00,77.7,71.8,30.00,West,261,0.0,0.0,82,0.00,,,0.00,WeatherCatV1.21B27,2013-09-11 01:30:00,
2013-09-10 21:35:00,78.0,72.0,30.00,West,261,0.0,0.0,82,0.00,,,0.00,WeatherCatV1.21B27,2013-09-11 01:35:00,
2013-09-10 21:40:00,78.2,72.2,30.00,West,260,0.0,0.0,82,0.00,,,0.00,WeatherCatV1.21B27,2013-09-11 01:40:00,
2013-09-10 21:45:00,78.6,72.6,30.00,West,260,0.0,0.0,82,0.00,,,0.00,WeatherCatV1.21B27,2013-09-11 01:45:00,
2013-09-10 21:50:00,78.9,73.3,30.00,West,261,0.0,0.0,83,0.00,,,0.00,WeatherCatV1.21B27,2013-09-11 01:50:00,
2013-09-10 21:55:00,79.2,73.2,30.01,West,260,0.0,0.0,82,0.00,,,0.00,WeatherCatV1.21B27,2013-09-11 01:55:00,
2013-09-10 22:00:00,79.5,73.5,30.00,West,260,0.0,0.0,82,0.00,,,0.00,WeatherCatV1.21B27,2013-09-11 02:00:00,
2013-09-10 22:05:00,79.7,73.7,30.00,West,261,0.0,0.0,82,0.00,,,0.00,WeatherCatV1.21B27,2013-09-11 02:05:00,
2013-09-10 22:10:00,79.8,73.8,30.00,West,261,0.0,0.0,82,0.00,,,0.00,WeatherCatV1.21B27,2013-09-11 02:10:00,
2013-09-10 22:15:00,80.1,74.1,30.00,West,261,0.0,0.0,82,0.00,,,0.00,WeatherCatV1.21B27,2013-09-11 02:15:00,
2013-09-10 22:20:00,80.3,73.9,30.00,West,260,0.0,0.0,81,0.00,,,0.00,WeatherCatV1.21B27,2013-09-11 02:20:00,
2013-09-10 22:25:00,80.4,74.0,30.00,West,261,0.0,0.0,81,0.00,,,0.00,WeatherCatV1.21B27,2013-09-11 02:25:00,
2013-09-10 22:30:00,80.4,74.0,30.00,West,261,0.0,0.0,81,0.00,,,0.00,WeatherCatV1.21B27,2013-09-11 02:30:00,
2013-09-10 22:35:00,80.3,73.9,30.00,West,260,0.0,0.0,81,0.00,,,0.00,WeatherCatV1.21B27,2013-09-11 02:35:00,
2013-09-10 22:40:00,80.3,73.9,30.00,West,261,0.0,0.0,81,0.00,,,0.00,WeatherCatV1.21B27,2013-09-11 02:40:00,
2013-09-10 22:45:00,80.2,73.8,30.00,West,261,0.0,0.0,81,0.00,,,0.00,WeatherCatV1.21B27,2013-09-11 02:45:00,
2013-09-10 22:50:00,80.3,73.9,30.00,West,261,0.0,0.0,81,0.00,,,0.00,WeatherCatV1.21B27,2013-09-11 02:50:00,
2013-09-10 22:55:00,80.4,74.0,30.00,West,260,0.0,0.0,81,0.00,,,0.00,WeatherCatV1.21B27,2013-09-11 02:55:00,
2013-09-10 23:00:00,80.4,74.0,30.00,West,261,0.0,0.0,81,0.00,,,0.00,WeatherCatV1.21B27,2013-09-11 03:00:00,
2013-09-10 23:05:00,80.4,74.0,30.00,West,260,0.0,0.0,81,0.00,,,0.00,WeatherCatV1.21B27,2013-09-11 03:05:00,
2013-09-10 23:10:00,80.3,73.9,30.00,West,261,0.0,0.0,81,0.00,,,0.00,WeatherCatV1.21B27,2013-09-11 03:10:00,
2013-09-10 23:15:00,80.3,74.3,30.00,SSW,200,0.0,0.0,82,0.00,,,0.00,WeatherCatV1.21B27,2013-09-11 03:15:00,
2013-09-10 23:20:00,80.2,74.2,30.00,SSW,201,0.0,0.0,82,0.00,,,0.00,WeatherCatV1.21B27,2013-09-11 03:20:00,
2013-09-10 23:25:00,80.0,74.0,30.00,SSW,200,0.0,0.0,82,0.00,,,0.00,WeatherCatV1.21B27,2013-09-11 03:25:00,
2013-09-10 23:30:00,79.9,73.9,30.00,SSW,200,0.0,0.0,82,0.00,,,0.00,WeatherCatV1.21B27,2013-09-11 03:30:00,
2013-09-10 23:35:00,79.8,74.2,30.00,SSW,201,0.0,0.0,83,0.00,,,0.00,WeatherCatV1.21B27,2013-09-11 03:35:00,
2013-09-10 23:40:00,79.7,74.1,30.00,SSW,201,0.0,0.0,83,0.00,,,0.00,WeatherCatV1.21B27,2013-09-11 03:40:00,
2013-09-10 23:45:00,79.5,73.9,30.00,SSW,200,0.0,0.0,83,0.00,,,0.00,WeatherCatV1.21B27,2013-09-11 03:45:00,
2013-09-10 23:50:00,79.4,73.8,30.00,South,188,0.0,0.0,83,0.00,,,0.00,WeatherCatV1.21B27,2013-09-11 03:50:00,
2013-09-10 23:55:00,79.2,73.9,29.99,South,169,0.0,0.0,84,0.00,,,0.00,WeatherCatV1.21B27,2013-09-11 03:55:00,